This is the latest recevied weather packets stored in our database for station/object SQ7FJB-2. If no packets are shown the sender has not sent any weather packets the latest 10 day(s).
| Time | Temp. | Humidity | Pressure | Rain* | Wind** | Luminosity | Snow |
|---|---|---|---|---|---|---|---|
| 1777945102 | 8.33° C | 88% | 1010 hPa | 0 mm | - | - | - |
| 1777944502 | 8.33° C | 88% | 1009.9 hPa | 0 mm | - | - | - |
| 1777943902 | 8.33° C | 87% | 1010 hPa | 0 mm | - | - | - |
| 1777943290 | 8.33° C | 88% | 1010 hPa | 0 mm | - | - | - |
| 1777942689 | 8.33° C | 87% | 1010 hPa | 0 mm | - | - | - |
| 1777942089 | 8.33° C | 88% | 1010.1 hPa | 0 mm | - | - | - |
| 1777941489 | 8.33° C | 87% | 1010.2 hPa | 0 mm | - | - | - |
| 1777940877 | 8.89° C | 87% | 1010.2 hPa | 0 mm | - | - | - |
| 1777940277 | 8.89° C | 85% | 1010.2 hPa | 0 mm | - | - | - |
| 1777939677 | 9.44° C | 84% | 1010.3 hPa | 0 mm | - | - | - |
| 1777939064 | 9.44° C | 84% | 1010.4 hPa | 0 mm | - | - | - |
| 1777938465 | 10° C | 82% | 1010.6 hPa | 0 mm | - | - | - |
| 1777937853 | 10° C | 81% | 1010.5 hPa | 0 mm | - | - | - |
| 1777937252 | 10° C | 81% | 1010.6 hPa | 0 mm | - | - | - |
| 1777936639 | 10.56° C | 79% | 1010.6 hPa | 0 mm | - | - | - |
| 1777936039 | 10.56° C | 78% | 1010.7 hPa | 0 mm | - | - | - |
| 1777935427 | 11.11° C | 76% | 1010.7 hPa | 0 mm | - | - | - |
| 1777934827 | 11.67° C | 75% | 1010.8 hPa | 0 mm | - | - | - |
| 1777934214 | 11.67° C | 72% | 1010.7 hPa | 0 mm | - | - | - |
| 1777933614 | 12.22° C | 71% | 1010.7 hPa | 0 mm | - | - | - |
| 1777933014 | 12.22° C | 70% | 1010.7 hPa | 0 mm | - | - | - |
| 1777932402 | 12.78° C | 71% | 1010.6 hPa | 0 mm | - | - | - |
| 1777931802 | 12.78° C | 70% | 1010.7 hPa | 0 mm | - | - | - |
| 1777931202 | 12.22° C | 71% | 1010.8 hPa | 0 mm | - | - | - |
| 1777930590 | 12.22° C | 71% | 1010.7 hPa | 0 mm | - | - | - |
* Rain latest hour (hover to see other rain measurements)
** Current wind speed in m/s (hover to see current wind gust speed)